sat.trackr.live / text

‹ back to catalog

QIANFAN-96

NORAD 66038 · 2025-233F

PAYLOAD ACTIVE UNKNOWN

§ Identity

Operator
Country
PRC
Launch date
2025-10-17
Launch site
TAISC
Launch vehicle
Mass (kg)
RCS (m²)

External: N2YO · Heavens-Above · Gunter

§ Orbital elements

Epoch: 2026-05-25T03:16:56.493408Z

Period
106.59 min
Inclination
89.0022°
Eccentricity
0.0002062
Mean motion
13.51006470 rev/d
Perigee alt
1,067.0 km
Apogee alt
1,070.1 km
Semi-major
7,446.7 km
B*
1.8460e-4
RAAN
45.5318°
Arg perigee
66.9050°
Mean anomaly
293.2318°
Rev number
3,006

§ Raw data

QIANFAN-961 66038U 25233F   26145.13676497  .00000131  00000+0  18460-3 0  99952 66038  89.0022  45.5318 0002062  66.9050 293.2318 13.51006470 30062

JSON: /api/v1/satellites/66038 · /tle

For live sub-satellite position, see the globe view (requires WebGL).

§ Visibility from observer

Set your observer location to see the next 7 days of passes ≥ 10°. The values pass through the URL so the page stays shareable.

No JS? Fill the form by hand. The geolocation button needs JavaScript.